Time,TemperatureF,DewpointF,PressureIn,WindDirection,WindDirectionDegrees,WindSpeedMPH,WindSpeedGustMPH,Humidity,HourlyPrecipIn,Conditions,Clouds,dailyrainin,SoftwareType,DateUTC
2013-04-11 00:00:00,69.8,58.3,29.91,SE,130,1.0,1.0,67,0.00,,,0.00,Wunderground v.1.15,2013-04-11 04:00:00,
2013-04-11 00:02:00,69.7,58.7,29.92,WSW,238,0.0,1.0,68,0.00,,,0.00,Wunderground v.1.15,2013-04-11 04:02:00,
2013-04-11 00:03:00,69.7,58.7,29.92,WSW,250,0.0,1.0,68,0.00,,,0.00,Wunderground v.1.15,2013-04-11 04:03:00,
2013-04-11 00:04:00,69.6,58.6,29.92,SSW,204,1.0,1.0,68,0.00,,,0.00,Wunderground v.1.15,2013-04-11 04:04:00,
2013-04-11 00:10:00,69.4,58.4,29.92,SW,226,1.0,2.0,68,0.00,,,0.00,Wunderground v.1.15,2013-04-11 04:10:00,
2013-04-11 00:16:00,69.4,58.8,29.92,SW,216,0.0,0.0,69,0.00,,,0.00,Wunderground v.1.15,2013-04-11 04:16:00,
2013-04-11 00:22:00,69.8,59.2,29.91,SW,214,1.0,2.0,69,0.00,,,0.00,Wunderground v.1.15,2013-04-11 04:22:00,
2013-04-11 00:28:00,69.8,59.2,29.91,SW,215,1.0,2.0,69,0.00,,,0.00,Wunderground v.1.15,2013-04-11 04:28:00,
2013-04-11 00:33:00,69.8,59.2,29.92,West,263,1.0,2.0,69,0.00,,,0.00,Wunderground v.1.15,2013-04-11 04:33:00,
2013-04-11 00:39:00,69.5,58.9,29.92,SSW,203,0.0,1.0,69,0.00,,,0.00,Wunderground v.1.15,2013-04-11 04:39:00,
2013-04-11 00:45:00,69.5,59.3,29.92,WSW,242,1.0,2.0,70,0.00,,,0.00,Wunderground v.1.15,2013-04-11 04:45:00,
2013-04-11 00:51:00,69.4,59.2,29.92,SSW,212,1.0,2.0,70,0.00,,,0.00,Wunderground v.1.15,2013-04-11 04:51:00,
2013-04-11 00:57:00,69.6,59.4,29.92,SW,232,0.0,1.0,70,0.00,,,0.00,Wunderground v.1.15,2013-04-11 04:57:00,
2013-04-11 01:02:00,69.5,59.3,29.92,West,280,0.0,3.0,70,0.00,,,0.00,Wunderground v.1.15,2013-04-11 05:02:00,
2013-04-11 01:07:00,69.4,59.2,29.92,SSW,210,0.0,2.0,70,0.00,,,0.00,Wunderground v.1.15,2013-04-11 05:07:00,
2013-04-11 01:12:00,69.5,59.3,29.92,SSW,205,4.0,4.0,70,0.00,,,0.00,Wunderground v.1.15,2013-04-11 05:12:00,
2013-04-11 01:18:00,69.5,59.3,29.92,SW,217,1.0,2.0,70,0.00,,,0.00,Wunderground v.1.15,2013-04-11 05:18:00,
2013-04-11 01:24:00,69.4,59.6,29.92,SSW,195,3.0,3.0,71,0.00,,,0.00,Wunderground v.1.15,2013-04-11 05:24:00,
2013-04-11 01:30:00,69.4,59.6,29.92,SSW,198,4.0,4.0,71,0.00,,,0.00,Wunderground v.1.15,2013-04-11 05:30:00,
2013-04-11 01:36:00,69.2,59.4,29.92,WSW,248,1.0,2.0,71,0.00,,,0.00,Wunderground v.1.15,2013-04-11 05:36:00,
2013-04-11 01:41:00,69.2,59.4,29.92,SSW,207,2.0,2.0,71,0.00,,,0.00,Wunderground v.1.15,2013-04-11 05:41:00,
2013-04-11 01:46:00,69.0,59.6,29.92,SW,221,3.0,3.0,72,0.00,,,0.00,Wunderground v.1.15,2013-04-11 05:46:00,
2013-04-11 01:52:00,69.0,59.6,29.92,WSW,248,2.0,3.0,72,0.00,,,0.00,Wunderground v.1.15,2013-04-11 05:52:00,
2013-04-11 01:57:00,69.0,59.6,29.92,SW,235,1.0,2.0,72,0.00,,,0.00,Wunderground v.1.15,2013-04-11 05:57:00,
2013-04-11 02:02:00,68.9,59.5,29.92,WSW,246,3.0,8.0,72,0.00,,,0.00,Wunderground v.1.15,2013-04-11 06:02:00,
2013-04-11 02:07:00,68.8,59.4,29.92,West,264,2.0,3.0,72,0.00,,,0.00,Wunderground v.1.15,2013-04-11 06:07:00,
2013-04-11 02:12:00,68.7,59.3,29.91,WSW,253,3.0,5.0,72,0.00,,,0.00,Wunderground v.1.15,2013-04-11 06:12:00,
2013-04-11 02:17:00,68.6,59.2,29.91,SW,218,2.0,3.0,72,0.00,,,0.00,Wunderground v.1.15,2013-04-11 06:17:00,
2013-04-11 02:22:00,68.4,59.0,29.91,SSW,205,2.0,6.0,72,0.00,,,0.00,Wunderground v.1.15,2013-04-11 06:22:00,
2013-04-11 02:28:00,68.2,59.2,29.91,WSW,242,6.0,6.0,73,0.00,,,0.00,Wunderground v.1.15,2013-04-11 06:28:00,
2013-04-11 02:33:00,68.0,59.0,29.91,SW,225,1.0,8.0,73,0.00,,,0.00,Wunderground v.1.15,2013-04-11 06:33:00,
2013-04-11 02:38:00,67.7,59.1,29.91,SW,232,1.0,2.0,74,0.00,,,0.00,Wunderground v.1.15,2013-04-11 06:38:00,
2013-04-11 02:43:00,67.4,58.8,29.91,SW,235,2.0,3.0,74,0.00,,,0.00,Wunderground v.1.15,2013-04-11 06:43:00,
2013-04-11 02:48:00,67.3,58.7,29.91,West,267,2.0,3.0,74,0.00,,,0.00,Wunderground v.1.15,2013-04-11 06:48:00,
2013-04-11 02:53:00,67.2,58.6,29.90,South,190,1.0,5.0,74,0.00,,,0.00,Wunderground v.1.15,2013-04-11 06:53:00,
2013-04-11 02:58:00,67.0,58.8,29.90,SW,231,1.0,2.0,75,0.00,,,0.00,Wunderground v.1.15,2013-04-11 06:58:00,
2013-04-11 03:03:00,66.7,58.5,29.91,SSW,201,1.0,3.0,75,0.00,,,0.00,Wunderground v.1.15,2013-04-11 07:03:00,
2013-04-11 03:08:00,66.5,58.7,29.90,SW,215,3.0,4.0,76,0.00,,,0.00,Wunderground v.1.15,2013-04-11 07:08:00,
2013-04-11 03:13:00,66.4,58.6,29.90,West,266,1.0,4.0,76,0.00,,,0.00,Wunderground v.1.15,2013-04-11 07:13:00,
2013-04-11 03:18:00,66.3,58.5,29.90,SSE,150,1.0,5.0,76,0.00,,,0.00,Wunderground v.1.15,2013-04-11 07:18:00,
2013-04-11 03:23:00,66.2,58.4,29.90,SW,221,2.0,5.0,76,0.00,,,0.00,Wunderground v.1.15,2013-04-11 07:23:00,
2013-04-11 03:28:00,66.0,58.6,29.90,WSW,242,0.0,4.0,77,0.00,,,0.00,Wunderground v.1.15,2013-04-11 07:28:00,
2013-04-11 03:33:00,65.9,58.5,29.90,West,266,1.0,4.0,77,0.00,,,0.00,Wunderground v.1.15,2013-04-11 07:33:00,
2013-04-11 03:38:00,65.8,58.4,29.90,West,279,2.0,4.0,77,0.00,,,0.00,Wunderground v.1.15,2013-04-11 07:38:00,
2013-04-11 03:43:00,65.6,58.2,29.90,SE,134,1.0,4.0,77,0.00,,,0.00,Wunderground v.1.15,2013-04-11 07:43:00,
2013-04-11 03:48:00,65.5,58.1,29.90,WSW,250,3.0,4.0,77,0.00,,,0.00,Wunderground v.1.15,2013-04-11 07:48:00,
2013-04-11 03:53:00,65.4,58.4,29.90,SW,231,0.0,4.0,78,0.00,,,0.00,Wunderground v.1.15,2013-04-11 07:53:00,
2013-04-11 03:58:00,65.2,58.2,29.90,SW,235,0.0,2.0,78,0.00,,,0.00,Wunderground v.1.15,2013-04-11 07:58:00,
2013-04-11 04:03:00,65.0,58.0,29.90,SW,219,2.0,3.0,78,0.00,,,0.00,Wunderground v.1.15,2013-04-11 08:03:00,
2013-04-11 04:08:00,64.8,58.1,29.90,SW,231,3.0,3.0,79,0.00,,,0.00,Wunderground v.1.15,2013-04-11 08:08:00,
2013-04-11 04:13:00,64.7,58.0,29.90,SW,215,3.0,5.0,79,0.00,,,0.00,Wunderground v.1.15,2013-04-11 08:13:00,
2013-04-11 04:18:00,64.7,58.0,29.90,West,275,2.0,2.0,79,0.00,,,0.00,Wunderground v.1.15,2013-04-11 08:18:00,
2013-04-11 04:23:00,64.6,57.9,29.90,South,191,1.0,4.0,79,0.00,,,0.00,Wunderground v.1.15,2013-04-11 08:23:00,
2013-04-11 04:28:00,64.5,57.8,29.90,WSW,243,2.0,5.0,79,0.00,,,0.00,Wunderground v.1.15,2013-04-11 08:28:00,
2013-04-11 04:33:00,64.4,57.7,29.90,SW,224,5.0,5.0,79,0.00,,,0.00,Wunderground v.1.15,2013-04-11 08:33:00,
2013-04-11 04:38:00,64.3,57.6,29.90,WSW,240,0.0,5.0,79,0.00,,,0.00,Wunderground v.1.15,2013-04-11 08:38:00,
2013-04-11 04:43:00,64.2,57.9,29.90,WNW,290,1.0,5.0,80,0.00,,,0.00,Wunderground v.1.15,2013-04-11 08:43:00,
2013-04-11 04:48:00,64.1,57.8,29.90,SW,215,5.0,6.0,80,0.00,,,0.00,Wunderground v.1.15,2013-04-11 08:48:00,
2013-04-11 04:53:00,64.0,57.7,29.90,WSW,252,2.0,6.0,80,0.00,,,0.00,Wunderground v.1.15,2013-04-11 08:53:00,
2013-04-11 04:59:00,63.9,57.6,29.90,SSW,208,2.0,3.0,80,0.00,,,0.00,Wunderground v.1.15,2013-04-11 08:59:00,
2013-04-11 05:04:00,63.8,57.5,29.90,WSW,245,1.0,4.0,80,0.00,,,0.00,Wunderground v.1.15,2013-04-11 09:04:00,
2013-04-11 05:08:00,63.7,57.8,29.90,SW,215,1.0,5.0,81,0.00,,,0.00,Wunderground v.1.15,2013-04-11 09:08:00,
2013-04-11 05:14:00,63.5,57.6,29.90,SW,231,0.0,5.0,81,0.00,,,0.00,Wunderground v.1.15,2013-04-11 09:14:00,
2013-04-11 05:19:00,63.4,57.5,29.91,SSW,194,0.0,4.0,81,0.00,,,0.00,Wunderground v.1.15,2013-04-11 09:19:00,
2013-04-11 05:24:00,63.3,57.7,29.90,South,190,2.0,4.0,82,0.00,,,0.00,Wunderground v.1.15,2013-04-11 09:24:00,
2013-04-11 05:29:00,63.2,57.6,29.90,SSW,207,2.0,4.0,82,0.00,,,0.00,Wunderground v.1.15,2013-04-11 09:29:00,
2013-04-11 05:34:00,63.1,57.5,29.90,SSW,212,1.0,5.0,82,0.00,,,0.00,Wunderground v.1.15,2013-04-11 09:34:00,
2013-04-11 05:39:00,62.9,57.7,29.91,WNW,290,2.0,4.0,83,0.00,,,0.00,Wunderground v.1.15,2013-04-11 09:39:00,
2013-04-11 05:44:00,62.9,57.7,29.91,SW,221,1.0,5.0,83,0.00,,,0.00,Wunderground v.1.15,2013-04-11 09:44:00,
2013-04-11 05:49:00,62.8,57.6,29.91,SW,224,1.0,4.0,83,0.00,,,0.00,Wunderground v.1.15,2013-04-11 09:49:00,
2013-04-11 05:54:00,62.6,57.7,29.90,SW,214,1.0,4.0,84,0.00,,,0.00,Wunderground v.1.15,2013-04-11 09:54:00,
2013-04-11 05:59:00,62.4,57.5,29.91,SW,226,2.0,4.0,84,0.00,,,0.00,Wunderground v.1.15,2013-04-11 09:59:00,
2013-04-11 06:04:00,62.3,57.4,29.91,WNW,287,3.0,4.0,84,0.00,,,0.00,Wunderground v.1.15,2013-04-11 10:04:00,
2013-04-11 06:09:00,62.3,57.4,29.90,SSW,212,1.0,4.0,84,0.00,,,0.00,Wunderground v.1.15,2013-04-11 10:09:00,
2013-04-11 06:14:00,62.1,57.5,29.91,SSW,205,2.0,4.0,85,0.00,,,0.00,Wunderground v.1.15,2013-04-11 10:14:00,
2013-04-11 06:19:00,62.0,57.4,29.91,SSW,207,1.0,4.0,85,0.00,,,0.00,Wunderground v.1.15,2013-04-11 10:19:00,
2013-04-11 06:24:00,61.9,57.7,29.91,SSW,193,1.0,4.0,86,0.00,,,0.00,Wunderground v.1.15,2013-04-11 10:24:00,
2013-04-11 06:29:00,61.8,57.6,29.91,WSW,257,3.0,3.0,86,0.00,,,0.00,Wunderground v.1.15,2013-04-11 10:29:00,
2013-04-11 06:34:00,61.6,57.4,29.91,SW,218,1.0,3.0,86,0.00,,,0.00,Wunderground v.1.15,2013-04-11 10:34:00,
2013-04-11 06:39:00,61.5,57.6,29.92,SW,229,1.0,7.0,87,0.00,,,0.00,Wunderground v.1.15,2013-04-11 10:39:00,
2013-04-11 06:44:00,61.4,57.5,29.92,SW,217,1.0,7.0,87,0.00,,,0.00,Wunderground v.1.15,2013-04-11 10:44:00,
2013-04-11 06:49:00,61.3,57.4,29.92,SSW,210,1.0,3.0,87,0.00,,,0.00,Wunderground v.1.15,2013-04-11 10:49:00,
2013-04-11 06:54:00,61.3,57.4,29.92,SW,228,1.0,3.0,87,0.00,,,0.00,Wunderground v.1.15,2013-04-11 10:54:00,
2013-04-11 06:59:00,61.2,57.6,29.92,SE,142,1.0,3.0,88,0.00,,,0.00,Wunderground v.1.15,2013-04-11 10:59:00,
2013-04-11 07:04:00,61.1,57.5,29.92,WNW,283,2.0,4.0,88,0.00,,,0.00,Wunderground v.1.15,2013-04-11 11:04:00,
2013-04-11 07:09:00,61.1,57.5,29.92,SSW,204,1.0,3.0,88,0.00,,,0.00,Wunderground v.1.15,2013-04-11 11:09:00,
2013-04-11 07:14:00,61.2,57.6,29.93,South,179,3.0,4.0,88,0.00,,,0.00,Wunderground v.1.15,2013-04-11 11:14:00,
2013-04-11 07:19:00,61.3,58.0,29.93,WSW,240,3.0,6.0,89,0.00,,,0.00,Wunderground v.1.15,2013-04-11 11:19:00,
2013-04-11 07:24:00,61.4,57.8,29.93,SW,234,2.0,6.0,88,0.00,,,0.00,Wunderground v.1.15,2013-04-11 11:24:00,
2013-04-11 07:29:00,61.6,58.3,29.93,SW,231,1.0,6.0,89,0.00,,,0.00,Wunderground v.1.15,2013-04-11 11:29:00,
2013-04-11 07:34:00,61.8,58.2,29.93,WNW,294,3.0,6.0,88,0.00,,,0.00,Wunderground v.1.15,2013-04-11 11:34:00,
2013-04-11 07:39:00,61.9,58.3,29.93,South,172,4.0,8.0,88,0.00,,,0.00,Wunderground v.1.15,2013-04-11 11:39:00,
2013-04-11 07:44:00,62.1,58.5,29.93,SW,231,1.0,10.0,88,0.00,,,0.00,Wunderground v.1.15,2013-04-11 11:44:00,
2013-04-11 07:49:00,62.3,58.7,29.93,SW,228,6.0,6.0,88,0.00,,,0.00,Wunderground v.1.15,2013-04-11 11:49:00,
2013-04-11 07:54:00,62.4,58.8,29.93,West,261,1.0,9.0,88,0.00,,,0.00,Wunderground v.1.15,2013-04-11 11:54:00,
2013-04-11 07:59:00,62.5,58.9,29.94,West,261,2.0,5.0,88,0.00,,,0.00,Wunderground v.1.15,2013-04-11 11:59:00,
2013-04-11 08:04:00,62.6,59.0,29.94,WSW,250,2.0,8.0,88,0.00,,,0.00,Wunderground v.1.15,2013-04-11 12:04:00,
2013-04-11 08:09:00,62.7,59.1,29.94,SW,218,4.0,5.0,88,0.00,,,0.00,Wunderground v.1.15,2013-04-11 12:09:00,
2013-04-11 08:14:00,62.9,59.3,29.94,SW,214,3.0,9.0,88,0.00,,,0.00,Wunderground v.1.15,2013-04-11 12:14:00,
2013-04-11 08:19:00,63.2,59.6,29.94,West,259,6.0,8.0,88,0.00,,,0.00,Wunderground v.1.15,2013-04-11 12:19:00,
2013-04-11 08:24:00,63.5,59.9,29.94,WSW,242,2.0,8.0,88,0.00,,,0.00,Wunderground v.1.15,2013-04-11 12:24:00,
2013-04-11 08:29:00,63.8,59.9,29.94,WSW,242,6.0,7.0,87,0.00,,,0.00,Wunderground v.1.15,2013-04-11 12:29:00,
2013-04-11 08:34:00,64.1,60.2,29.94,West,259,2.0,7.0,87,0.00,,,0.00,Wunderground v.1.15,2013-04-11 12:34:00,
2013-04-11 08:39:00,64.4,60.1,29.94,SSW,205,3.0,9.0,86,0.00,,,0.00,Wunderground v.1.15,2013-04-11 12:39:00,
2013-04-11 08:44:00,64.6,60.3,29.94,WSW,244,3.0,9.0,86,0.00,,,0.00,Wunderground v.1.15,2013-04-11 12:44:00,
2013-04-11 08:49:00,64.8,60.5,29.94,WSW,240,1.0,8.0,86,0.00,,,0.00,Wunderground v.1.15,2013-04-11 12:49:00,
2013-04-11 08:54:00,65.0,60.7,29.94,SSE,167,3.0,8.0,86,0.00,,,0.00,Wunderground v.1.15,2013-04-11 12:54:00,
2013-04-11 08:59:00,65.3,60.7,29.94,WSW,239,5.0,7.0,85,0.00,,,0.00,Wunderground v.1.15,2013-04-11 12:59:00,
2013-04-11 09:04:00,65.4,60.8,29.94,West,262,2.0,8.0,85,0.00,,,0.00,Wunderground v.1.15,2013-04-11 13:04:00,
2013-04-11 09:10:00,65.4,61.1,29.94,SE,142,1.0,7.0,86,0.00,,,0.00,Wunderground v.1.15,2013-04-11 13:10:00,
2013-04-11 09:15:00,65.5,60.9,29.94,West,272,4.0,10.0,85,0.00,,,0.00,Wunderground v.1.15,2013-04-11 13:15:00,
2013-04-11 09:20:00,65.7,61.1,29.94,WSW,250,1.0,6.0,85,0.00,,,0.00,Wunderground v.1.15,2013-04-11 13:20:00,
2013-04-11 09:25:00,65.8,61.2,29.94,SSW,204,1.0,11.0,85,0.00,,,0.00,Wunderground v.1.15,2013-04-11 13:25:00,
2013-04-11 09:30:00,66.0,61.0,29.94,SSW,205,3.0,4.0,84,0.00,,,0.00,Wunderground v.1.15,2013-04-11 13:30:00,
2013-04-11 09:35:00,66.4,61.4,29.94,WSW,257,8.0,9.0,84,0.00,,,0.00,Wunderground v.1.15,2013-04-11 13:35:00,
2013-04-11 09:40:00,66.5,61.5,29.94,WNW,287,2.0,7.0,84,0.00,,,0.00,Wunderground v.1.15,2013-04-11 13:40:00,
2013-04-11 09:45:00,66.8,61.8,29.94,NW,311,2.0,7.0,84,0.00,,,0.00,Wunderground v.1.15,2013-04-11 13:45:00,
2013-04-11 09:50:00,67.0,61.7,29.94,West,274,6.0,11.0,83,0.00,,,0.00,Wunderground v.1.15,2013-04-11 13:50:00,
2013-04-11 09:55:00,67.1,61.8,29.94,West,260,1.0,11.0,83,0.00,,,0.00,Wunderground v.1.15,2013-04-11 13:55:00,
2013-04-11 10:00:00,67.5,62.2,29.93,WNW,284,4.0,7.0,83,0.00,,,0.00,Wunderground v.1.15,2013-04-11 14:00:00,
2013-04-11 10:05:00,68.0,61.9,29.93,WSW,250,6.0,8.0,81,0.00,,,0.00,Wunderground v.1.15,2013-04-11 14:05:00,
2013-04-11 10:10:00,68.4,62.3,29.94,West,263,6.0,9.0,81,0.00,,,0.00,Wunderground v.1.15,2013-04-11 14:10:00,
2013-04-11 10:15:00,69.0,62.9,29.93,West,271,5.0,9.0,81,0.00,,,0.00,Wunderground v.1.15,2013-04-11 14:15:00,
2013-04-11 10:20:00,69.4,62.6,29.93,WSW,248,4.0,9.0,79,0.00,,,0.00,Wunderground v.1.15,2013-04-11 14:20:00,
2013-04-11 10:25:00,69.6,62.4,29.94,West,260,5.0,9.0,78,0.00,,,0.00,Wunderground v.1.15,2013-04-11 14:25:00,
2013-04-11 10:30:00,69.9,62.7,29.93,WSW,242,6.0,9.0,78,0.00,,,0.00,Wunderground v.1.15,2013-04-11 14:30:00,
2013-04-11 10:35:00,70.2,62.6,29.93,SW,235,2.0,9.0,77,0.00,,,0.00,Wunderground v.1.15,2013-04-11 14:35:00,
2013-04-11 10:40:00,70.5,62.9,29.93,NW,315,6.0,6.0,77,0.00,,,0.00,Wunderground v.1.15,2013-04-11 14:40:00,
2013-04-11 10:45:00,71.2,63.6,29.93,WSW,245,2.0,6.0,77,0.00,,,0.00,Wunderground v.1.15,2013-04-11 14:45:00,
2013-04-11 10:50:00,71.7,63.7,29.93,SSW,192,2.0,10.0,76,0.00,,,0.00,Wunderground v.1.15,2013-04-11 14:50:00,
2013-04-11 10:55:00,71.9,63.2,29.93,WSW,257,5.0,11.0,74,0.00,,,0.00,Wunderground v.1.15,2013-04-11 14:55:00,
2013-04-11 11:00:00,72.2,63.4,29.93,SW,231,5.0,7.0,74,0.00,,,0.00,Wunderground v.1.15,2013-04-11 15:00:00,
2013-04-11 11:05:00,72.4,63.3,29.93,SE,143,3.0,7.0,73,0.00,,,0.00,Wunderground v.1.15,2013-04-11 15:05:00,
2013-04-11 11:10:00,72.7,63.5,29.93,SW,219,4.0,8.0,73,0.00,,,0.00,Wunderground v.1.15,2013-04-11 15:10:00,
2013-04-11 11:15:00,72.9,63.3,29.93,West,266,7.0,11.0,72,0.00,,,0.00,Wunderground v.1.15,2013-04-11 15:15:00,
2013-04-11 11:20:00,72.9,63.3,29.93,SW,219,8.0,10.0,72,0.00,,,0.00,Wunderground v.1.15,2013-04-11 15:20:00,
2013-04-11 11:25:00,73.4,63.8,29.92,WSW,238,3.0,10.0,72,0.00,,,0.00,Wunderground v.1.15,2013-04-11 15:25:00,
2013-04-11 11:31:00,73.8,64.2,29.93,SSW,193,4.0,9.0,72,0.00,,,0.00,Wunderground v.1.15,2013-04-11 15:31:00,
2013-04-11 11:36:00,73.7,63.7,29.92,SW,218,6.0,11.0,71,0.00,,,0.00,Wunderground v.1.15,2013-04-11 15:36:00,
2013-04-11 11:41:00,73.8,63.8,29.92,West,280,3.0,11.0,71,0.00,,,0.00,Wunderground v.1.15,2013-04-11 15:41:00,
2013-04-11 11:46:00,73.9,63.9,29.91,West,270,1.0,5.0,71,0.00,,,0.00,Wunderground v.1.15,2013-04-11 15:46:00,
2013-04-11 11:51:00,74.4,64.0,29.91,West,265,2.0,7.0,70,0.00,,,0.00,Wunderground v.1.15,2013-04-11 15:51:00,
2013-04-11 11:56:00,75.0,63.7,29.91,SSW,211,8.0,8.0,68,0.00,,,0.00,Wunderground v.1.15,2013-04-11 15:56:00,
2013-04-11 12:02:00,74.6,63.3,29.91,SW,235,1.0,12.0,68,0.00,,,0.00,Wunderground v.1.15,2013-04-11 16:02:00,
2013-04-11 12:07:00,74.7,63.9,29.91,SE,134,4.0,5.0,69,0.00,,,0.00,Wunderground v.1.15,2013-04-11 16:07:00,
2013-04-11 12:12:00,74.8,64.4,29.91,West,263,3.0,10.0,70,0.00,,,0.00,Wunderground v.1.15,2013-04-11 16:12:00,
2013-04-11 12:17:00,75.1,63.4,29.91,WSW,257,4.0,10.0,67,0.00,,,0.00,Wunderground v.1.15,2013-04-11 16:17:00,
2013-04-11 12:22:00,75.5,63.8,29.90,WSW,248,4.0,11.0,67,0.00,,,0.00,Wunderground v.1.15,2013-04-11 16:22:00,
2013-04-11 12:27:00,76.1,63.9,29.90,West,267,4.0,10.0,66,0.00,,,0.00,Wunderground v.1.15,2013-04-11 16:27:00,
2013-04-11 12:32:00,76.1,63.5,29.90,SSW,210,4.0,10.0,65,0.00,,,0.00,Wunderground v.1.15,2013-04-11 16:32:00,
2013-04-11 12:37:00,75.7,63.1,29.90,SW,222,5.0,8.0,65,0.00,,,0.00,Wunderground v.1.15,2013-04-11 16:37:00,
2013-04-11 12:42:00,75.6,63.4,29.90,SW,229,6.0,11.0,66,0.00,,,0.00,Wunderground v.1.15,2013-04-11 16:42:00,
2013-04-11 12:47:00,75.4,62.8,29.90,West,269,5.0,11.0,65,0.00,,,0.00,Wunderground v.1.15,2013-04-11 16:47:00,
2013-04-11 12:52:00,75.0,62.9,29.89,SW,224,4.0,11.0,66,0.00,,,0.00,Wunderground v.1.15,2013-04-11 16:52:00,
2013-04-11 12:57:00,74.8,63.1,29.89,SW,231,11.0,11.0,67,0.00,,,0.00,Wunderground v.1.15,2013-04-11 16:57:00,
2013-04-11 13:02:00,74.7,63.0,29.89,SSW,197,4.0,11.0,67,0.00,,,0.00,Wunderground v.1.15,2013-04-11 17:02:00,
2013-04-11 13:07:00,75.0,63.7,29.89,SW,235,3.0,4.0,68,0.00,,,0.00,Wunderground v.1.15,2013-04-11 17:07:00,
2013-04-11 13:12:00,74.9,63.2,29.88,SW,235,3.0,8.0,67,0.00,,,0.00,Wunderground v.1.15,2013-04-11 17:12:00,
2013-04-11 13:17:00,75.0,63.3,29.89,WSW,257,11.0,11.0,67,0.00,,,0.00,Wunderground v.1.15,2013-04-11 17:17:00,
2013-04-11 13:22:00,74.8,62.7,29.88,WSW,250,2.0,11.0,66,0.00,,,0.00,Wunderground v.1.15,2013-04-11 17:22:00,
2013-04-11 13:27:00,75.0,62.9,29.88,WSW,248,4.0,5.0,66,0.00,,,0.00,Wunderground v.1.15,2013-04-11 17:27:00,
2013-04-11 13:33:00,76.1,63.0,29.88,WSW,250,5.0,6.0,64,0.00,,,0.00,Wunderground v.1.15,2013-04-11 17:33:00,
2013-04-11 13:38:00,76.4,63.8,29.87,WSW,255,9.0,9.0,65,0.00,,,0.00,Wunderground v.1.15,2013-04-11 17:38:00,
2013-04-11 13:43:00,76.9,64.2,29.87,WSW,255,3.0,11.0,65,0.00,,,0.00,Wunderground v.1.15,2013-04-11 17:43:00,
2013-04-11 13:48:00,77.2,64.1,29.87,SSE,156,4.0,9.0,64,0.00,,,0.00,Wunderground v.1.15,2013-04-11 17:48:00,
2013-04-11 13:53:00,76.9,62.9,29.87,West,280,2.0,11.0,62,0.00,,,0.00,Wunderground v.1.15,2013-04-11 17:53:00,
2013-04-11 13:58:00,76.4,63.8,29.86,SW,226,7.0,7.0,65,0.00,,,0.00,Wunderground v.1.15,2013-04-11 17:58:00,
2013-04-11 14:03:00,76.2,63.1,29.86,SW,229,5.0,8.0,64,0.00,,,0.00,Wunderground v.1.15,2013-04-11 18:03:00,
2013-04-11 14:08:00,76.7,62.7,29.86,South,181,3.0,8.0,62,0.00,,,0.00,Wunderground v.1.15,2013-04-11 18:08:00,
2013-04-11 14:13:00,77.1,62.6,29.85,WSW,240,4.0,11.0,61,0.00,,,0.00,Wunderground v.1.15,2013-04-11 18:13:00,
2013-04-11 14:18:00,77.5,64.4,29.85,SW,232,4.0,4.0,64,0.00,,,0.00,Wunderground v.1.15,2013-04-11 18:18:00,
2013-04-11 14:23:00,77.7,63.6,29.85,SW,224,6.0,8.0,62,0.00,,,0.00,Wunderground v.1.15,2013-04-11 18:23:00,
2013-04-11 14:28:00,78.3,63.7,29.84,West,262,5.0,6.0,61,0.00,,,0.00,Wunderground v.1.15,2013-04-11 18:28:00,
2013-04-11 14:33:00,78.4,63.4,29.84,South,173,2.0,9.0,60,0.00,,,0.00,Wunderground v.1.15,2013-04-11 18:33:00,
2013-04-11 14:38:00,78.5,63.0,29.84,SW,233,3.0,5.0,59,0.00,,,0.00,Wunderground v.1.15,2013-04-11 18:38:00,
2013-04-11 14:43:00,78.9,63.4,29.83,SSW,194,2.0,9.0,59,0.00,,,0.00,Wunderground v.1.15,2013-04-11 18:43:00,
2013-04-11 14:48:00,78.9,62.9,29.84,SW,214,2.0,8.0,58,0.00,,,0.00,Wunderground v.1.15,2013-04-11 18:48:00,
2013-04-11 14:53:00,78.5,62.0,29.83,WSW,255,4.0,8.0,57,0.00,,,0.00,Wunderground v.1.15,2013-04-11 18:53:00,
2013-04-11 14:58:00,78.4,61.4,29.83,SW,232,3.0,15.0,56,0.00,,,0.00,Wunderground v.1.15,2013-04-11 18:58:00,
2013-04-11 15:03:00,78.7,62.2,29.83,South,174,2.0,15.0,57,0.00,,,0.00,Wunderground v.1.15,2013-04-11 19:03:00,
2013-04-11 15:08:00,78.5,62.0,29.83,WSW,240,9.0,9.0,57,0.00,,,0.00,Wunderground v.1.15,2013-04-11 19:08:00,
2013-04-11 15:13:00,78.7,62.2,29.83,NW,322,6.0,10.0,57,0.00,,,0.00,Wunderground v.1.15,2013-04-11 19:13:00,
2013-04-11 15:18:00,78.5,61.5,29.83,SW,214,3.0,17.0,56,0.00,,,0.00,Wunderground v.1.15,2013-04-11 19:18:00,
2013-04-11 15:23:00,78.4,61.9,29.83,WSW,246,5.0,17.0,57,0.00,,,0.00,Wunderground v.1.15,2013-04-11 19:23:00,
2013-04-11 15:28:00,78.2,61.2,29.82,WSW,242,3.0,10.0,56,0.00,,,0.00,Wunderground v.1.15,2013-04-11 19:28:00,
2013-04-11 15:33:00,78.4,60.9,29.82,SW,236,4.0,13.0,55,0.00,,,0.00,Wunderground v.1.15,2013-04-11 19:33:00,
2013-04-11 15:38:00,79.2,61.6,29.81,SW,219,4.0,9.0,55,0.00,,,0.00,Wunderground v.1.15,2013-04-11 19:38:00,
2013-04-11 15:43:00,79.7,61.1,29.81,West,270,4.0,9.0,53,0.00,,,0.00,Wunderground v.1.15,2013-04-11 19:43:00,
2013-04-11 15:48:00,79.7,61.1,29.81,SW,214,4.0,11.0,53,0.00,,,0.00,Wunderground v.1.15,2013-04-11 19:48:00,
2013-04-11 15:53:00,79.9,61.2,29.80,SW,229,2.0,11.0,53,0.00,,,0.00,Wunderground v.1.15,2013-04-11 19:53:00,
2013-04-11 15:58:00,80.5,60.7,29.80,West,268,6.0,10.0,51,0.00,,,0.00,Wunderground v.1.15,2013-04-11 19:58:00,
2013-04-11 16:04:00,80.6,61.3,29.80,SW,235,1.0,14.0,52,0.00,,,0.00,Wunderground v.1.15,2013-04-11 20:04:00,
2013-04-11 16:09:00,80.2,61.0,29.79,West,270,3.0,10.0,52,0.00,,,0.00,Wunderground v.1.15,2013-04-11 20:09:00,
2013-04-11 16:14:00,79.9,60.7,29.79,WSW,238,5.0,10.0,52,0.00,,,0.00,Wunderground v.1.15,2013-04-11 20:14:00,
2013-04-11 16:19:00,79.9,60.7,29.78,West,274,6.0,6.0,52,0.00,,,0.00,Wunderground v.1.15,2013-04-11 20:19:00,
2013-04-11 16:24:00,80.3,61.1,29.78,SE,143,5.0,9.0,52,0.00,,,0.00,Wunderground v.1.15,2013-04-11 20:24:00,
2013-04-11 16:29:00,80.5,62.3,29.77,SSW,202,1.0,10.0,54,0.00,,,0.00,Wunderground v.1.15,2013-04-11 20:29:00,
2013-04-11 16:34:00,80.4,61.2,29.77,SSW,213,6.0,11.0,52,0.00,,,0.00,Wunderground v.1.15,2013-04-11 20:34:00,
2013-04-11 16:39:00,79.9,61.2,29.77,WSW,255,4.0,6.0,53,0.00,,,0.00,Wunderground v.1.15,2013-04-11 20:39:00,
2013-04-11 16:44:00,80.0,61.3,29.77,SW,222,4.0,11.0,53,0.00,,,0.00,Wunderground v.1.15,2013-04-11 20:44:00,
2013-04-11 16:49:00,80.4,61.7,29.77,WNW,291,2.0,11.0,53,0.00,,,0.00,Wunderground v.1.15,2013-04-11 20:49:00,
2013-04-11 16:54:00,80.0,61.3,29.77,SW,232,5.0,11.0,53,0.00,,,0.00,Wunderground v.1.15,2013-04-11 20:54:00,
2013-04-11 16:59:00,79.4,62.3,29.76,SW,235,4.0,7.0,56,0.00,,,0.00,Wunderground v.1.15,2013-04-11 20:59:00,
2013-04-11 17:04:00,79.5,61.9,29.76,WSW,240,3.0,7.0,55,0.00,,,0.00,Wunderground v.1.15,2013-04-11 21:04:00,
2013-04-11 17:09:00,79.9,62.3,29.76,East,98,2.0,5.0,55,0.00,,,0.00,Wunderground v.1.15,2013-04-11 21:09:00,
2013-04-11 17:14:00,80.1,62.0,29.76,WSW,246,6.0,9.0,54,0.00,,,0.00,Wunderground v.1.15,2013-04-11 21:14:00,
2013-04-11 17:19:00,79.4,62.3,29.76,West,281,5.0,9.0,56,0.00,,,0.00,Wunderground v.1.15,2013-04-11 21:19:00,
2013-04-11 17:24:00,79.0,62.5,29.76,South,179,4.0,9.0,57,0.00,,,0.00,Wunderground v.1.15,2013-04-11 21:24:00,
2013-04-11 17:29:00,78.8,62.3,29.76,South,190,3.0,6.0,57,0.00,,,0.00,Wunderground v.1.15,2013-04-11 21:29:00,
2013-04-11 17:34:00,78.8,62.8,29.76,SSW,207,1.0,6.0,58,0.00,,,0.00,Wunderground v.1.15,2013-04-11 21:34:00,
2013-04-11 17:39:00,79.3,62.7,29.76,West,260,5.0,6.0,57,0.00,,,0.00,Wunderground v.1.15,2013-04-11 21:39:00,
2013-04-11 17:44:00,79.2,62.7,29.76,SSW,203,4.0,9.0,57,0.00,,,0.00,Wunderground v.1.15,2013-04-11 21:44:00,
2013-04-11 17:49:00,79.1,62.6,29.75,SW,219,6.0,7.0,57,0.00,,,0.00,Wunderground v.1.15,2013-04-11 21:49:00,
2013-04-11 17:54:00,79.1,62.6,29.76,SSW,203,2.0,7.0,57,0.00,,,0.00,Wunderground v.1.15,2013-04-11 21:54:00,
2013-04-11 17:59:00,79.1,62.6,29.76,ESE,117,7.0,8.0,57,0.00,,,0.00,Wunderground v.1.15,2013-04-11 21:59:00,
2013-04-11 18:04:00,79.2,62.7,29.76,SW,215,1.0,10.0,57,0.00,,,0.00,Wunderground v.1.15,2013-04-11 22:04:00,
2013-04-11 18:09:00,79.3,62.7,29.76,WSW,257,5.0,8.0,57,0.00,,,0.00,Wunderground v.1.15,2013-04-11 22:09:00,
2013-04-11 18:14:00,79.1,62.6,29.75,West,262,4.0,12.0,57,0.00,,,0.00,Wunderground v.1.15,2013-04-11 22:14:00,
2013-04-11 18:19:00,79.2,62.7,29.76,SSW,204,8.0,8.0,57,0.00,,,0.00,Wunderground v.1.15,2013-04-11 22:19:00,
2013-04-11 18:24:00,78.9,62.4,29.76,WSW,248,5.0,13.0,57,0.00,,,0.00,Wunderground v.1.15,2013-04-11 22:24:00,
2013-04-11 18:29:00,78.6,62.6,29.76,WSW,248,5.0,9.0,58,0.00,,,0.00,Wunderground v.1.15,2013-04-11 22:29:00,
2013-04-11 18:34:00,78.5,63.0,29.75,SW,219,1.0,9.0,59,0.00,,,0.00,Wunderground v.1.15,2013-04-11 22:34:00,
2013-04-11 18:39:00,78.4,62.4,29.76,West,271,5.0,7.0,58,0.00,,,0.00,Wunderground v.1.15,2013-04-11 22:39:00,
2013-04-11 18:44:00,78.3,62.3,29.75,SSE,163,2.0,7.0,58,0.00,,,0.00,Wunderground v.1.15,2013-04-11 22:44:00,
2013-04-11 18:49:00,78.1,62.1,29.75,SE,140,0.0,5.0,58,0.00,,,0.00,Wunderground v.1.15,2013-04-11 22:49:00,
2013-04-11 18:54:00,77.8,61.8,29.75,SW,229,4.0,7.0,58,0.00,,,0.00,Wunderground v.1.15,2013-04-11 22:54:00,
2013-04-11 18:59:00,77.7,61.7,29.75,ESE,109,5.0,10.0,58,0.00,,,0.00,Wunderground v.1.15,2013-04-11 22:59:00,
2013-04-11 19:04:00,77.5,62.5,29.75,SSW,203,3.0,10.0,60,0.00,,,0.00,Wunderground v.1.15,2013-04-11 23:04:00,
2013-04-11 19:09:00,77.4,61.9,29.76,SW,222,1.0,5.0,59,0.00,,,0.00,Wunderground v.1.15,2013-04-11 23:09:00,
2013-04-11 19:14:00,77.3,62.3,29.75,SSW,212,2.0,5.0,60,0.00,,,0.00,Wunderground v.1.15,2013-04-11 23:14:00,
2013-04-11 19:19:00,77.1,62.1,29.76,WSW,238,3.0,4.0,60,0.00,,,0.00,Wunderground v.1.15,2013-04-11 23:19:00,
2013-04-11 19:24:00,76.9,62.4,29.76,WSW,252,4.0,6.0,61,0.00,,,0.00,Wunderground v.1.15,2013-04-11 23:24:00,
2013-04-11 19:29:00,76.8,62.3,29.75,SW,221,1.0,4.0,61,0.00,,,0.00,Wunderground v.1.15,2013-04-11 23:29:00,
2013-04-11 19:34:00,76.5,62.0,29.75,WSW,245,1.0,4.0,61,0.00,,,0.00,Wunderground v.1.15,2013-04-11 23:34:00,
2013-04-11 19:39:00,76.2,62.2,29.75,SSW,211,1.0,3.0,62,0.00,,,0.00,Wunderground v.1.15,2013-04-11 23:39:00,
2013-04-11 19:44:00,76.0,62.5,29.75,SSW,212,1.0,4.0,63,0.00,,,0.00,Wunderground v.1.15,2013-04-11 23:44:00,
2013-04-11 19:49:00,75.7,62.2,29.75,East,85,2.0,3.0,63,0.00,,,0.00,Wunderground v.1.15,2013-04-11 23:49:00,
2013-04-11 19:54:00,75.5,62.5,29.75,SW,229,2.0,4.0,64,0.00,,,0.00,Wunderground v.1.15,2013-04-11 23:54:00,
2013-04-11 19:59:00,75.4,62.4,29.75,ESE,119,1.0,4.0,64,0.00,,,0.00,Wunderground v.1.15,2013-04-11 23:59:00,
2013-04-11 20:04:00,75.3,62.3,29.75,South,179,2.0,6.0,64,0.00,,,0.00,Wunderground v.1.15,2013-04-12 00:04:00,
2013-04-11 20:09:00,75.2,62.6,29.75,SSE,150,1.0,5.0,65,0.00,,,0.00,Wunderground v.1.15,2013-04-12 00:09:00,
2013-04-11 20:14:00,74.9,62.3,29.74,South,181,3.0,5.0,65,0.00,,,0.00,Wunderground v.1.15,2013-04-12 00:14:00,
2013-04-11 20:20:00,74.7,62.6,29.74,WSW,246,2.0,4.0,66,0.00,,,0.00,Wunderground v.1.15,2013-04-12 00:20:00,
2013-04-11 20:25:00,74.5,62.4,29.74,SSE,167,1.0,4.0,66,0.00,,,0.00,Wunderground v.1.15,2013-04-12 00:25:00,
2013-04-11 20:30:00,74.2,62.5,29.74,SW,217,0.0,5.0,67,0.00,,,0.00,Wunderground v.1.15,2013-04-12 00:30:00,
2013-04-11 20:35:00,74.2,62.5,29.74,WSW,243,1.0,6.0,67,0.00,,,0.00,Wunderground v.1.15,2013-04-12 00:35:00,
2013-04-11 20:40:00,74.3,62.6,29.74,SW,231,4.0,5.0,67,0.00,,,0.00,Wunderground v.1.15,2013-04-12 00:40:00,
2013-04-11 20:45:00,74.3,62.6,29.74,SSE,167,0.0,6.0,67,0.00,,,0.00,Wunderground v.1.15,2013-04-12 00:45:00,
2013-04-11 20:50:00,74.3,62.6,29.74,SE,136,1.0,6.0,67,0.00,,,0.00,Wunderground v.1.15,2013-04-12 00:50:00,
2013-04-11 20:55:00,74.2,62.5,29.74,SSE,166,2.0,6.0,67,0.00,,,0.00,Wunderground v.1.15,2013-04-12 00:55:00,
2013-04-11 21:00:00,74.2,62.1,29.74,SE,136,2.0,4.0,66,0.00,,,0.00,Wunderground v.1.15,2013-04-12 01:00:00,
2013-04-11 21:05:00,74.3,62.2,29.74,SW,228,4.0,4.0,66,0.00,,,0.00,Wunderground v.1.15,2013-04-12 01:05:00,
2013-04-11 21:10:00,74.2,62.5,29.74,SE,145,1.0,3.0,67,0.00,,,0.00,Wunderground v.1.15,2013-04-12 01:10:00,
2013-04-11 21:15:00,74.1,62.4,29.74,SSE,158,0.0,3.0,67,0.00,,,0.00,Wunderground v.1.15,2013-04-12 01:15:00,
2013-04-11 21:20:00,73.9,62.2,29.74,SW,218,1.0,2.0,67,0.00,,,0.00,Wunderground v.1.15,2013-04-12 01:20:00,
2013-04-11 21:25:00,73.7,62.5,29.74,SE,129,1.0,2.0,68,0.00,,,0.00,Wunderground v.1.15,2013-04-12 01:25:00,
2013-04-11 21:30:00,73.5,62.3,29.74,SSW,195,1.0,2.0,68,0.00,,,0.00,Wunderground v.1.15,2013-04-12 01:30:00,
2013-04-11 21:35:00,73.3,62.1,29.74,SSE,155,1.0,2.0,68,0.00,,,0.00,Wunderground v.1.15,2013-04-12 01:35:00,
2013-04-11 21:40:00,73.3,62.1,29.74,SSE,153,1.0,6.0,68,0.00,,,0.00,Wunderground v.1.15,2013-04-12 01:40:00,
2013-04-11 21:45:00,73.3,62.5,29.74,SE,136,1.0,6.0,69,0.00,,,0.00,Wunderground v.1.15,2013-04-12 01:45:00,
2013-04-11 21:50:00,73.2,62.4,29.73,SW,219,1.0,4.0,69,0.00,,,0.00,Wunderground v.1.15,2013-04-12 01:50:00,
2013-04-11 21:55:00,73.1,62.3,29.73,South,175,1.0,4.0,69,0.00,,,0.00,Wunderground v.1.15,2013-04-12 01:55:00,
2013-04-11 22:00:00,73.0,62.6,29.74,SW,224,1.0,3.0,70,0.00,,,0.00,Wunderground v.1.15,2013-04-12 02:00:00,
2013-04-11 22:06:00,73.1,62.7,29.74,SW,215,1.0,5.0,70,0.00,,,0.00,Wunderground v.1.15,2013-04-12 02:06:00,
2013-04-11 22:11:00,73.3,62.9,29.74,SW,221,5.0,5.0,70,0.00,,,0.00,Wunderground v.1.15,2013-04-12 02:11:00,
2013-04-11 22:16:00,73.4,63.0,29.74,SSW,197,4.0,8.0,70,0.00,,,0.00,Wunderground v.1.15,2013-04-12 02:16:00,
2013-04-11 22:21:00,73.4,63.0,29.73,SSW,206,2.0,7.0,70,0.00,,,0.00,Wunderground v.1.15,2013-04-12 02:21:00,
2013-04-11 22:26:00,73.4,63.4,29.73,SW,232,1.0,7.0,71,0.00,,,0.00,Wunderground v.1.15,2013-04-12 02:26:00,
2013-04-11 22:31:00,73.3,63.7,29.73,West,260,4.0,7.0,72,0.00,,,0.00,Wunderground v.1.15,2013-04-12 02:31:00,
2013-04-11 22:36:00,73.3,64.1,29.73,SSE,151,2.0,7.0,73,0.00,,,0.00,Wunderground v.1.15,2013-04-12 02:36:00,
2013-04-11 22:41:00,73.3,64.5,29.73,SW,225,3.0,8.0,74,0.00,,,0.00,Wunderground v.1.15,2013-04-12 02:41:00,
2013-04-11 22:46:00,73.3,65.3,29.73,SW,229,6.0,6.0,76,0.00,,,0.00,Wunderground v.1.15,2013-04-12 02:46:00,
2013-04-11 22:51:00,73.2,65.6,29.73,ENE,59,4.0,8.0,77,0.00,,,0.00,Wunderground v.1.15,2013-04-12 02:51:00,
2013-04-11 22:56:00,73.2,65.6,29.73,SW,232,3.0,5.0,77,0.00,,,0.00,Wunderground v.1.15,2013-04-12 02:56:00,
2013-04-11 23:01:00,73.1,65.8,29.73,SSW,204,4.0,7.0,78,0.00,,,0.00,Wunderground v.1.15,2013-04-12 03:01:00,
2013-04-11 23:06:00,73.1,65.8,29.73,WSW,250,2.0,3.0,78,0.00,,,0.00,Wunderground v.1.15,2013-04-12 03:06:00,
2013-04-11 23:11:00,73.1,66.2,29.73,West,281,3.0,9.0,79,0.00,,,0.00,Wunderground v.1.15,2013-04-12 03:11:00,
2013-04-11 23:16:00,73.1,66.2,29.74,SSW,206,7.0,7.0,79,0.00,,,0.00,Wunderground v.1.15,2013-04-12 03:16:00,
2013-04-11 23:21:00,72.9,66.4,29.74,SE,125,4.0,10.0,80,0.00,,,0.00,Wunderground v.1.15,2013-04-12 03:21:00,
2013-04-11 23:26:00,72.7,66.2,29.74,WSW,250,3.0,4.0,80,0.00,,,0.00,Wunderground v.1.15,2013-04-12 03:26:00,
2013-04-11 23:31:00,72.6,66.1,29.74,SSW,203,2.0,7.0,80,0.00,,,0.00,Wunderground v.1.15,2013-04-12 03:31:00,
2013-04-11 23:36:00,72.6,66.1,29.74,SSW,203,2.0,5.0,80,0.00,,,0.00,Wunderground v.1.15,2013-04-12 03:36:00,
2013-04-11 23:41:00,72.4,66.2,29.74,SSW,205,8.0,10.0,81,0.00,,,0.00,Wunderground v.1.15,2013-04-12 03:41:00,
2013-04-11 23:46:00,72.3,66.1,29.74,SW,231,4.0,6.0,81,0.00,,,0.00,Wunderground v.1.15,2013-04-12 03:46:00,
2013-04-11 23:51:00,72.2,65.7,29.73,ESE,110,3.0,9.0,80,0.00,,,0.00,Wunderground v.1.15,2013-04-12 03:51:00,
2013-04-11 23:57:00,72.2,65.7,29.73,South,172,4.0,11.0,80,0.00,,,0.00,Wunderground v.1.15,2013-04-12 03:57:00,